Weather History for Fort Stockton, TX

Change the Weather History Date:

Sunday, August 26, 2012

  Actual Average Record
Temperature  
Mean Temperature 81 °F -  
Max Temperature 93 °F 89 °F 102 °F (2002)
Min Temperature 69 °F 67 °F 64 °F (1997)
Cooling Degree Days 16    
Growing Degree Days 31 (Base 50)    
Moisture  
Dew Point 61 °F    
Average Humidity 53    
Maximum Humidity 78    
Minimum Humidity 33    
Precipitation  
Precipitation 0.00 in - - ()
Sea Level Pressure  
Sea Level Pressure 29.85 in    
Wind  
Wind Speed 10 mph (SE)    
Max Wind Speed 17 mph    
Max Gust Speed 24 mph    
Visibility 10 miles    
Events      
Averages and records for this station are not official NWS values.
T = Trace of Precipitation, MM = Missing Value Source: NWS Daily Summary

Daily Weather History Graph

Daily Weather History Graph

Search for Another Location

Airport:

Trip Planner

Search our weather history database for the weather conditions in past years. The results will help you decide how hot, cold, wet, or windy it might be!

Date:

Astronomy

Aug. 26, 2012 Rise Set
Actual Time 7:24 AM CDT 8:21 PM CDT
Civil Twilight 6:59 AM CDT 8:46 PM CDT
Nautical Twilight 6:30 AM CDT 9:15 PM CDT
Astronomical Twilight 6:00 AM CDT 9:45 PM CDT
Moon 4:41 PM CDT (8/26) 2:20 AM CDT (8/26)
Length of Visible Light 13h 46m
Length of Day
12h 56m
Waxing Gibbous, 73% of the Moon is Illuminated
Aug 26
Waxing Gibbous
Aug 31
Full
Sep 8
Last Quarter
Sep 15
New
Sep 22
First Quarter

Hourly Weather History & Observations

Time (CDT) Temp. Heat Index Dew Point Humidity Pressure Visibility Wind Dir Wind Speed Gust Speed Precip Events Conditions
12:53 AM 73.9 °F - 62.1 °F 66% 29.77 in 10.0 mi South 8.1 mph - N/A   Clear
1:53 AM 73.0 °F - 62.1 °F 68% 29.77 in 10.0 mi South 8.1 mph - N/A   Clear
3:53 AM 71.1 °F - 62.1 °F 73% 29.78 in 10.0 mi SSE 8.1 mph - N/A   Clear
4:53 AM 70.0 °F - 62.1 °F 76% 29.78 in 10.0 mi SSE 10.4 mph - N/A   Clear
5:53 AM 70.0 °F - 62.1 °F 76% 29.82 in 10.0 mi SSE 9.2 mph - N/A   Clear
7:53 AM 69.1 °F - 62.1 °F 78% 29.86 in 10.0 mi SSE 6.9 mph - N/A   Clear
8:53 AM 72.0 °F - 63.0 °F 73% 29.88 in 10.0 mi SSE 11.5 mph - N/A   Clear
9:53 AM 77.0 °F - 62.1 °F 60% 29.88 in 10.0 mi SSE 17.3 mph 20.7 mph N/A   Clear
10:53 AM 82.0 °F 83.4 °F 64.0 °F 54% 29.89 in 10.0 mi SSE 12.7 mph - N/A   Clear
11:53 AM 86.0 °F 87.3 °F 64.0 °F 48% 29.89 in 10.0 mi SE 10.4 mph - N/A   Clear
12:53 PM 88.0 °F 88.4 °F 62.1 °F 42% 29.89 in 10.0 mi Variable 3.5 mph - N/A   Clear
1:53 PM 90.0 °F 90.3 °F 62.1 °F 39% 29.87 in 10.0 mi ESE 9.2 mph - N/A   Clear
3:53 PM 93.0 °F 93.0 °F 61.0 °F 34% 29.83 in 10.0 mi ESE 16.1 mph 24.2 mph N/A   Clear
4:53 PM 91.0 °F 90.5 °F 60.1 °F 35% 29.81 in 10.0 mi SE 13.8 mph - N/A   Clear
5:53 PM 91.0 °F 90.0 °F 57.9 °F 33% 29.81 in 10.0 mi SSE 12.7 mph 19.6 mph N/A   Clear
6:53 PM 90.0 °F 89.7 °F 60.1 °F 37% 29.82 in 10.0 mi SSE 12.7 mph 23.0 mph N/A   Clear
7:53 PM 87.1 °F 86.5 °F 59.0 °F 39% 29.84 in 10.0 mi SE 13.8 mph 21.9 mph N/A   Clear
8:53 PM 84.9 °F 84.2 °F 57.9 °F 40% 29.89 in 10.0 mi ESE 11.5 mph - N/A   Clear
9:53 PM 82.9 °F 82.4 °F 57.0 °F 41% 29.92 in 10.0 mi ESE 10.4 mph - N/A   Clear
10:53 PM 80.1 °F 80.7 °F 59.0 °F 48% 29.94 in 10.0 mi East 4.6 mph - N/A   Clear
11:53 PM 79.0 °F - 60.1 °F 52% 29.94 in 10.0 mi Calm Calm - N/A   Partly Cloudy